Location: ???????
(55.4362°N, 38.1183°E)
Time: 18:22:30
(UTC+00:00)

Cosmos 1725 Rocket - Pass Details

Date: 17 June 2021
Orbit: 962 x 990 km, 82.9° (Epoch: 29 July)

Event Time Altitude Azimuth Distance (km) Brightness Sun altitude
Rises 19:07:48 0° 348° (NNW) 3,665 8.6 -5.6°
Reaches altitude 10° 19:10:19 10° 349° (N) 2,713 7.7 -5.8°
Maximum altitude 19:16:33 87° 80° (E) 973 4.1 -6.3°
Drops below altitude 10° 19:22:44 10° 169° (S) 2,698 5.7 -6.7°
Enters shadow 19:23:34 - 170° (S) 3,014 6.0 -6.8°
